Lexington Weather

Lexington, Massachusetts, USA

32°F
11/15/2019 2:10am 
  • Lexington Conditions: Mostly cloudy
  • Temperature: 31.6°F / -0.2°CWarmer 0.7°F than last hour.
  • Dew Point: 29.3°FIncreased 1.4°Fsince last hour.
  • Relative Humidity: 91%Increased 3.0% since last hour.
  • Wind: Calm, 10-min avg: Calm, gust: 4 mph
  • Barometer: 30.19 in Steady
  • Visibility: 10 miles
  • Snow Today: 0.0 in
  •   

Regional Weather Roundup
for Boston / Norton, MA

        
000
ASUS41 KBOX 131610
RWRBOX

REGIONAL WEATHER ROUNDUP
NATIONAL WEATHER SERVICE BOSTON/NORTON MA
1100 AM EST WED NOV 13 2019

NOTE:  "FAIR" INDICATES FEW OR NO CLOUDS BELOW 12,000 FEET WITH NO 
SIGNIFICANT WEATHER AND/OR OBSTRUCTIONS TO VISIBILITY.

MAZALL-131700-
EASTERN MASSACHUSETTS
  
CITY           SKY/WX    TMP DP  RH WIND       PRES   REMARKS
BOSTON         FAIR      28   1  31 NW23G30   30.20S WCI  14          
BEVERLY        FAIR      25   3  38 NW20G25   30.18R WCI  11          
LAWRENCE       FAIR      24   3  40 NW12G24   30.21S WCI  13          
BEDFORD        FAIR      27   2  34 W16G24    30.20S WCI  15          
BLUE HILL        N/A     24   4  42 W17G28    30.14S WCI  11          
NORWOOD        FAIR      30   2  30 NW14G22   30.21S WCI  19          
MARSHFIELD     FAIR      28   3  34 W10G18    30.18S WCI  19          
PLYMOUTH       FAIR      26   4  38 W20G25    30.18S WCI  12          
TAUNTON        FAIR      28   2  32 W10G22    30.20S WCI  19          
NEW BEDFORD    FAIR      27   3  35 NW13G20   30.20S WCI  16          
$$

MAZALL-131700-
CAPE COD AND THE ISLANDS
  
CITY           SKY/WX    TMP DP  RH WIND       PRES   REMARKS
FALMOUTH       NOT AVBL                                               
HYANNIS        FAIR      29   7  39 NW10G23   30.15S WCI  20          
CHATHAM        FAIR      28  13  53 NW9G20    30.16F WCI  19          
PROVINCETOWN   FAIR      29  16  58 NW22G32   30.17S WCI  15          
NANTUCKET      FAIR      30  11  45 NW18G29   30.18R WCI  18          
MARTHAS VNYRD  FAIR      29   7  39 NW18G26   30.20R WCI  16          
$$
 
MAZALL-131700-
CENTRAL AND WESTERN MASSACHUSETTS
  
CITY           SKY/WX    TMP DP  RH WIND       PRES   REMARKS
WORCESTER      FAIR      21   0  39 NW15G23   30.16R WCI   8          
FITCHBURG      FAIR      24   1  36 NW18G29   30.22R WCI  10          
ORANGE         FAIR      23   0  36 NW10G20   30.23S WCI  12          
SPRINGFIELD    MOSUNNY   26  -1  31 NW14G24   30.26R WCI  14          
WESTFIELD      FAIR      24   0  35 NW18G28   30.27R WCI  10          
NORTH ADAMS    FAIR      19   2  47 NW5       30.29R WCI  12          
PITTSFIELD     FAIR      17   2  51 NW12G18   30.23R WCI   4          
$$
 
RIZALL-131700-
RHODE ISLAND
  
CITY           SKY/WX    TMP DP  RH WIND       PRES   REMARKS
PROVIDENCE     FAIR      27   1  32 NW13G22   30.24S WCI  16          
NEWPORT        FAIR      28   3  34 NW16G23   30.21S WCI  16          
BLOCK ISLAND   FAIR      29   8  41 NW15G24   30.25S WCI  18          
SMITHFIELD     FLURRIES  26   5  40 NW12G23   30.20S WCI  16          
WESTERLY       FAIR      29   2  31 NW12G20   30.26R WCI  19          
$$
 
CTZALL-131700-
CONNECTICUT
  
CITY           SKY/WX    TMP DP  RH WIND       PRES   REMARKS
BRADLEY INTL   FAIR      28   1  31 N13G23    30.28R WCI  17          
HARTFORD       FAIR      28   4  35 N9G21     30.31R WCI  19          
BRIDGEPORT     FAIR      30   4  33 N16G31    30.31R WCI  19          
DANBURY        FAIR      26   5  40 N10       30.30R WCI  16          
GROTON         FAIR      29   2  31 NW18      30.26S WCI  16          
NEW HAVEN      FAIR      30   0  27 N17G30    30.30R WCI  18          
CHESTER        FAIR      27  -2  28 N14G24    30.26S WCI  15          
MERIDEN        FLURRIES  26   1  34 W16G25    30.30S WCI  14          
WILLIMANTIC    FAIR      25   2  37 N12G21    30.27S WCI  14          
OXFORD         FAIR      23   4  44 NW13G24   30.27R WCI  11          
$$

MEZ002-015-021-024-NHZ003-005-008-011-012-014-VTZ005-008-131700-
NORTHERN NEW ENGLAND
  
CITY           SKY/WX    TMP DP  RH WIND       PRES   REMARKS
PORTLAND ME    FAIR      22   9  57 NW18      30.13S WCI   7          
BANGOR ME      FAIR      21  11  65 NW16G24   30.01R WCI   7          
CONCORD NH     FAIR      20   5  52 NW24G31   30.19S WCI   3          
MANCHESTER NH  FAIR      25   2  37 NW13G25   30.18S WCI  14          
NASHUA NH      FAIR      25   4  40 NW21G28   30.21S WCI  11          
PORTSMOUTH NH  MOSUNNY   24   1  37 W14G23    30.15R WCI  11          
JAFFREY NH     FAIR      20   1  43 W13       30.16S WCI   7          
KEENE NH       FAIR      22   4  46 NW9G21    30.23S WCI  12          
BURLINGTON VT  FAIR      17   3  54 N12       30.29S WCI   4          
MT. WASHINGTON FOG       -8  -8 100 NW64G75     N/A  VSB 1/8 WCI -45  
$$

NYZ052-076-131700-
EASTERN NEW YORK
  
CITY           SKY/WX    TMP DP  RH WIND       PRES   REMARKS
ALBANY         FAIR      21   4  47 W15       30.35R WCI   8          
NEW YORK CITY  FAIR      31  11  43 NW20G26   30.33S WCI  19          
$$
 
ANZALL-131700-
MARINE OBSERVATIONS
  
STATION/POSITION TIME  TEMP    WIND        PRES    VSBY  WAVE
                       AIR SEA DIR/SP/G                  HT/PER
                 (UTC) (F)     (DEG/KT/KT) (MB)    (MI)  (FT/S)
BOSTON BUOY      1550   26 52  300/ 23/ 29 1020.7S         4/ 5
BUZZARDS BAY     1500   25     320/ 22/ 26 1023.4R
NANTUCKET SOUND  1540      51                N/A           3/ 4
MASS BAY-STELLWA 1504   24 51  300/ 23/ 31 1020.8R  1 7/8  4/ 4
ISLE OF SHOALS   1500   19     290/ 31/ 36 1019.5R
S OF BLOCK IS    1600      58                N/A           7/ 7
$$

......................KEY.........................
  SKY/WX - SKY CONDITION/PRESENT WEATHER
  TMP    - TEMPERATURE IN FAHRENHEIT
  DWPT   - DEWPOINT IN FAHRENHEIT
  RH     - RELATIVE HUMIDITY IN PERCENT
  WIND   - DIRECTION AND SPEED IN MPH
  PRES   - MEAN SEA LEVEL PRESSURE IN INCHES OF HG
  WCI    - WIND CHILL INDEX
  VSB    - VISIBILITY IN MILES
  HX     - HEAT INDEX
  TC     - TEMPERATURE IN CELSIUS
  VRB    - VARIABLE WIND DIRECTION
  N/A    - NOT AVAILABLE
  
      

Other recent Regional Weather Roundups

Fri Nov 15, 2:00am

Fri Nov 15, 1:10am

Fri Nov 15, 1:00am

Fri Nov 15, 12:10am

Fri Nov 15, 12:00am

Thu Nov 14, 11:10pm

Thu Nov 14, 11:00pm

Thu Nov 14, 10:10pm

Thu Nov 14, 10:00pm

Thu Nov 14, 9:10pm

Thu Nov 14, 9:00pm

Thu Nov 14, 8:10pm

Thu Nov 14, 8:00pm

Thu Nov 14, 7:10pm

Thu Nov 14, 7:00pm

Thu Nov 14, 6:10pm

Thu Nov 14, 6:01pm

Thu Nov 14, 5:10pm

Thu Nov 14, 5:00pm

Thu Nov 14, 4:10pm

Thu Nov 14, 4:00pm

Thu Nov 14, 3:10pm

Thu Nov 14, 3:00pm

Thu Nov 14, 2:10pm

Thu Nov 14, 2:00pm

Thu Nov 14, 1:10pm

Thu Nov 14, 1:00pm

Thu Nov 14, 12:10pm

Thu Nov 14, 12:01pm

Thu Nov 14, 11:10am

Thu Nov 14, 11:00am

Thu Nov 14, 10:10am

Thu Nov 14, 10:01am

Thu Nov 14, 9:10am

Thu Nov 14, 9:00am

Thu Nov 14, 8:10am

Thu Nov 14, 8:00am

Thu Nov 14, 7:10am

Thu Nov 14, 7:00am

Thu Nov 14, 6:10am

Thu Nov 14, 6:00am

Thu Nov 14, 5:10am

Thu Nov 14, 5:00am

Thu Nov 14, 4:10am

Thu Nov 14, 4:00am

Thu Nov 14, 3:10am

Thu Nov 14, 3:00am

Thu Nov 14, 2:10am

Thu Nov 14, 2:00am

Thu Nov 14, 1:10am

Thu Nov 14, 1:00am

Thu Nov 14, 12:10am

Thu Nov 14, 12:00am

Wed Nov 13, 11:10pm

Wed Nov 13, 11:00pm

Wed Nov 13, 10:10pm

Wed Nov 13, 10:00pm

Wed Nov 13, 9:10pm

Wed Nov 13, 9:00pm

Wed Nov 13, 8:10pm

Wed Nov 13, 8:00pm

Wed Nov 13, 7:10pm

Wed Nov 13, 7:00pm

Wed Nov 13, 6:10pm

Wed Nov 13, 6:01pm

Wed Nov 13, 5:10pm

Wed Nov 13, 5:00pm

Wed Nov 13, 4:10pm

Wed Nov 13, 4:00pm

Wed Nov 13, 3:10pm

Wed Nov 13, 3:01pm

Wed Nov 13, 2:10pm

Wed Nov 13, 2:01pm

Wed Nov 13, 1:10pm

Wed Nov 13, 1:00pm

Wed Nov 13, 12:10pm

Wed Nov 13, 12:01pm

Wed Nov 13, 11:00am

Wed Nov 13, 10:10am

Wed Nov 13, 10:00am

Wed Nov 13, 9:10am

Wed Nov 13, 9:00am

Wed Nov 13, 8:10am

Wed Nov 13, 8:00am

Wed Nov 13, 7:10am

Wed Nov 13, 7:00am

Wed Nov 13, 6:10am

Wed Nov 13, 6:00am

Wed Nov 13, 5:10am

Wed Nov 13, 5:00am

Wed Nov 13, 4:10am

Wed Nov 13, 4:00am

Wed Nov 13, 3:10am

Wed Nov 13, 3:00am

Wed Nov 13, 2:10am

Wed Nov 13, 2:00am

Wed Nov 13, 1:10am

Wed Nov 13, 1:00am

Wed Nov 13, 12:10am

Wed Nov 13, 12:00am

Tue Nov 12, 11:10pm

Tue Nov 12, 11:00pm

Tue Nov 12, 10:10pm

Tue Nov 12, 10:00pm

Tue Nov 12, 9:10pm

Tue Nov 12, 9:00pm

Tue Nov 12, 8:10pm

Tue Nov 12, 8:00pm

Tue Nov 12, 7:10pm

Tue Nov 12, 7:01pm

Tue Nov 12, 6:10pm

Tue Nov 12, 6:01pm

Tue Nov 12, 5:10pm

Tue Nov 12, 5:01pm

Tue Nov 12, 4:10pm

Tue Nov 12, 4:01pm

Tue Nov 12, 3:10pm

Tue Nov 12, 3:00pm

Tue Nov 12, 2:10pm

Tue Nov 12, 2:00pm

Tue Nov 12, 1:10pm

Tue Nov 12, 1:00pm

Tue Nov 12, 12:10pm

Tue Nov 12, 12:00pm

Tue Nov 12, 11:10am

Tue Nov 12, 11:00am

Tue Nov 12, 10:10am

Tue Nov 12, 10:01am

Tue Nov 12, 9:10am

Tue Nov 12, 9:00am

Tue Nov 12, 8:10am

Tue Nov 12, 8:00am

Tue Nov 12, 7:10am

Tue Nov 12, 7:00am

Tue Nov 12, 6:10am

Tue Nov 12, 6:00am

Tue Nov 12, 5:10am

Tue Nov 12, 5:01am

Tue Nov 12, 4:10am

Tue Nov 12, 4:00am

Tue Nov 12, 3:10am

Tue Nov 12, 3:01am

Tue Nov 12, 2:10am

Meta data:

ID: ce215145-ae24-433a-986a-2b99b9753eaf
Link: https://api.weather.gov/products/ce215145-ae24-433a-986a-2b99b9753eaf